| time (UTC) | temp F | wind direction | speed MPH | gust MPH | rain 1hr in | rain 24hr in | rain mn in | humidity % | barometer mb |
| 20260904181531 | 79 | 270 | 0.0 | 4.0 | 0.00 | 0.00 | 0.00 | 1011.4 | |
| 20260904180527 | 80 | 0.0 | 4.0 | 0.00 | 0.00 | 0.00 | 1011.3 | ||
| 20260904175524 | 80 | 23 | 0.0 | 5.0 | 0.00 | 0.00 | 0.00 | 1011.3 | |
| 20260904174520 | 81 | 255 | 2.0 | 7.0 | 0.00 | 0.00 | 0.00 | 1011.1 | |
| 20260904173516 | 81 | 315 | 0.0 | 4.0 | 0.00 | 0.00 | 0.00 | 1011.1 | |
| 20260904172612 | 82 | 303 | 1.0 | 7.0 | 0.00 | 0.00 | 0.00 | 1011.0 | |
| 20260904171608 | 82 | 221 | 1.0 | 9.0 | 0.00 | 0.00 | 0.00 | 1011.1 | |
| 20260904170604 | 82 | 315 | 1.0 | 4.0 | 0.00 | 0.00 | 0.00 | 1011.1 | |
| 20260904165600 | 82 | 158 | 0.0 | 4.0 | 0.00 | 0.00 | 0.00 | 1011.1 | |
| 20260904164556 | 84 | 268 | 1.0 | 5.0 | 0.00 | 0.00 | 0.00 | 1011.1 | |
| 20260904163553 | 85 | 305 | 1.0 | 8.0 | 0.00 | 0.00 | 0.00 | 1011.2 | |
| 20260904162549 | 87 | 186 | 2.0 | 8.0 | 0.00 | 0.00 | 0.00 | 1011.2 | |
| 20260904161545 | 87 | 224 | 3.0 | 11.0 | 0.00 | 0.00 | 0.00 | 1011.3 | |
| 20260904160542 | 86 | 180 | 6.0 | 11.0 | 0.00 | 0.00 | 0.00 | 1011.4 | |
| 20260904155538 | 85 | 218 | 2.0 | 11.0 | 0.00 | 0.00 | 0.00 | 1011.2 | |
| 20260904154534 | 84 | 265 | 2.0 | 10.0 | 0.00 | 0.00 | 0.00 | 1011.2 | |
| 20260904153600 | 84 | 244 | 3.0 | 7.0 | 0.00 | 0.00 | 0.00 | 1011.3 | |
| 20260904152556 | 86 | 176 | 3.0 | 11.0 | 0.00 | 0.00 | 0.00 | 1011.2 | |
| 20260904151552 | 86 | 312 | 3.0 | 10.0 | 0.00 | 0.00 | 0.00 | 1011.2 | |
| 20260904150549 | 87 | 225 | 3.0 | 8.0 | 0.00 | 0.00 | 0.00 | 1011.2 | |
| 20260904145546 | 86 | 293 | 4.0 | 8.0 | 0.00 | 0.00 | 0.00 | 1011.2 | |
| 20260904144542 | 85 | 311 | 3.0 | 8.0 | 0.00 | 0.00 | 0.00 | 1011.3 | |
| 20260904143538 | 87 | 255 | 3.0 | 8.0 | 0.00 | 0.00 | 0.00 | 1011.4 | |
| 20260904142534 | 86 | 275 | 5.0 | 13.0 | 0.00 | 0.00 | 0.00 | 1011.6 | |
| 20260904141530 | 84 | 302 | 6.0 | 14.0 | 0.00 | 0.00 | 0.00 | 1011.6 | |
| 20260904140526 | 84 | 225 | 7.0 | 11.0 | 0.00 | 0.00 | 0.00 | 1011.7 | |
| 20260904135522 | 86 | 309 | 3.0 | 11.0 | 0.00 | 0.00 | 0.00 | 1011.8 | |
| 20260904134519 | 86 | 278 | 3.0 | 11.0 | 0.00 | 0.00 | 0.00 | 1011.8 | |
| 20260904133615 | 86 | 262 | 5.0 | 14.0 | 0.00 | 0.01 | 0.00 | 1011.8 | |
| 20260904132612 | 86 | 273 | 2.0 | 8.0 | 0.00 | 0.02 | 0.00 | 1011.9 | |
| 20260904131608 | 87 | 283 | 3.0 | 11.0 | 0.00 | 0.04 | 0.00 | 1012.1 | |
| 20260904130604 | 86 | 113 | 1.0 | 3.0 | 0.00 | 0.06 | 0.00 | 1012.2 | |
| 20260904125559 | 84 | 264 | 2.0 | 9.0 | 0.00 | 0.07 | 0.00 | 1012.4 | |
| 20260904124555 | 82 | 200 | 2.0 | 8.0 | 0.00 | 0.09 | 0.00 | 1012.9 | |
| 20260904123552 | 84 | 236 | 2.0 | 8.0 | 0.00 | 0.11 | 0.00 | 1013.2 | |
| 20260904122548 | 82 | 255 | 3.0 | 10.0 | 0.00 | 0.12 | 0.00 | 1013.3 | |
| 20260904121544 | 82 | 226 | 2.0 | 7.0 | 0.00 | 0.12 | 0.00 | 1013.6 | |
| 20260904120541 | 81 | 225 | 4.0 | 10.0 | 0.00 | 0.12 | 0.00 | 1013.8 | |
| 20260904115537 | 80 | 204 | 3.0 | 11.0 | 0.00 | 0.12 | 0.00 | 1013.9 | |
| 20260904114533 | 79 | 252 | 2.0 | 7.0 | 0.00 | 0.13 | 0.00 | 1014.1 | |
| 20260904113530 | 79 | 210 | 2.0 | 5.0 | 0.00 | 0.13 | 0.00 | 1014.3 | |
| 20260904112525 | 79 | 276 | 3.0 | 8.0 | 0.00 | 0.13 | 0.00 | 1014.4 | |
| 20260904111522 | 80 | 257 | 2.0 | 10.0 | 0.00 | 0.13 | 0.00 | 1014.5 | |
| 20260904110518 | 79 | 225 | 1.0 | 4.0 | 0.00 | 0.13 | 0.00 | 1014.6 | |
| 20260904105614 | 78 | 258 | 2.0 | 9.0 | 0.00 | 0.13 | 0.00 | 1014.6 | |
| 20260904104611 | 78 | 232 | 5.0 | 11.0 | 0.00 | 0.13 | 0.00 | 1014.7 | |
| 20260904103606 | 78 | 198 | 4.0 | 9.0 | 0.00 | 0.13 | 0.00 | 1014.9 | |
| 20260904102603 | 77 | 158 | 2.0 | 9.0 | 0.00 | 0.13 | 0.00 | 1015.1 | |
| 20260904101559 | 77 | 246 | 3.0 | 8.0 | 0.00 | 0.13 | 0.00 | 1015.0 | |
| 20260904100555 | 78 | 180 | 3.0 | 5.0 | 0.00 | 0.13 | 0.00 | 1015.2 | |
| 20260904095551 | 77 | 173 | 5.0 | 11.0 | 0.00 | 0.13 | 0.00 | 1015.3 | |
| 20260904094547 | 76 | 206 | 4.0 | 12.0 | 0.00 | 0.13 | 0.00 | 1015.5 | |
| 20260904093543 | 75 | 199 | 2.0 | 8.0 | 0.00 | 0.13 | 0.00 | 1015.8 | |
| 20260904092540 | 75 | 212 | 1.0 | 5.0 | 0.00 | 0.13 | 0.00 | 1015.9 | |
| 20260904091537 | 75 | 216 | 1.0 | 4.0 | 0.00 | 0.13 | 0.00 | 1016.1 | |
| 20260904090532 | 74 | 225 | 2.0 | 4.0 | 0.00 | 0.13 | 0.00 | 1016.3 | |
| 20260904085529 | 74 | 113 | 0.0 | 4.0 | 0.00 | 0.13 | 0.00 | 1016.4 | |
| 20260904084525 | 73 | 194 | 1.0 | 6.0 | 0.00 | 0.13 | 0.00 | 1016.5 | |
| 20260904083522 | 72 | 215 | 1.0 | 5.0 | 0.00 | 0.13 | 0.00 | 1016.4 | |
| 20260904082517 | 71 | 189 | 1.0 | 4.0 | 0.00 | 0.13 | 0.00 | 1016.6 | |
| 20260904081614 | 70 | 198 | 1.0 | 4.0 | 0.00 | 0.13 | 0.00 | 1016.7 | |
| 20260904080609 | 70 | 0.0 | 2.0 | 0.00 | 0.13 | 0.00 | 1016.8 | ||
| 20260904075605 | 70 | 169 | 0.0 | 3.0 | 0.00 | 0.13 | 0.00 | 1017.1 | |
| 20260904074602 | 69 | 298 | 1.0 | 4.0 | 0.00 | 0.13 | 0.00 | 1017.2 | |
| 20260904073558 | 68 | 201 | 0.0 | 3.0 | 0.00 | 0.13 | 0.00 | 1017.2 | |
| 20260904072554 | 67 | 0.0 | 1.0 | 0.00 | 0.13 | 0.00 | 1017.3 | ||
| 20260904071550 | 66 | 0.0 | 3.0 | 0.00 | 0.13 | 0.00 | 1017.5 | ||
| 20260904070547 | 65 | 180 | 1.0 | 2.0 | 0.00 | 0.13 | 0.00 | 1017.4 | |
| 20260904065543 | 65 | 180 | 1.0 | 4.0 | 0.00 | 0.13 | 0.00 | 1017.4 | |
| 20260904064539 | 64 | 180 | 1.0 | 4.0 | 0.00 | 0.13 | 0.00 | 1017.5 | |
| 20260904063535 | 64 | 180 | 0.0 | 4.0 | 0.00 | 0.13 | 0.00 | 1017.5 | |
| 20260904062530 | 64 | 170 | 1.0 | 4.0 | 0.00 | 0.13 | 0.00 | 1017.6 | |
| 20260904061527 | 63 | 206 | 1.0 | 3.0 | 0.00 | 0.13 | 0.00 | 1017.5 | |
| 20260904060523 | 62 | 0.0 | 2.0 | 0.00 | 0.13 | 0.00 | 1017.5 | ||
| 20260904055520 | 61 | 0.0 | 2.0 | 0.00 | 0.13 | 0.00 | 1017.4 | ||
| 20260904054516 | 61 | 180 | 0.0 | 3.0 | 0.00 | 0.13 | 0.00 | 1017.4 | |
| 20260904053612 | 61 | 225 | 0.0 | 2.0 | 0.00 | 0.13 | 0.00 | 1017.6 | |
| 20260904052608 | 61 | 225 | 0.0 | 2.0 | 0.00 | 0.13 | 0.00 | 1017.4 | |
| 20260904051605 | 60 | 0.0 | 0.0 | 0.00 | 0.13 | 0.00 | 1017.6 | ||
| 20260904050601 | 60 | 0.0 | 0.0 | 0.00 | 0.13 | 0.00 | 1017.7 | ||
| 20260904045556 | 59 | 0.0 | 0.0 | 0.00 | 0.13 | 0.00 | 1017.6 | ||
| 20260904044553 | 59 | 0.0 | 2.0 | 0.00 | 0.13 | 0.00 | 1017.7 | ||
| 20260904043549 | 59 | 203 | 0.0 | 2.0 | 0.00 | 0.13 | 0.00 | 1017.6 | |
| 20260904042545 | 60 | 180 | 0.0 | 2.0 | 0.00 | 0.13 | 0.00 | 1017.7 | |
| 20260904041542 | 60 | 180 | 0.0 | 3.0 | 0.00 | 0.13 | 0.00 | 1017.7 | |
| 20260904040537 | 60 | 0.0 | 0.0 | 0.00 | 0.13 | 0.00 | 1017.8 | ||
| 20260904035534 | 59 | 180 | 0.0 | 3.0 | 0.00 | 0.13 | 0.00 | 1018.0 | |
| 20260904034601 | 60 | 180 | 0.0 | 2.0 | 0.00 | 0.13 | 0.00 | 1017.9 | |
| 20260904033556 | 60 | 0.0 | 2.0 | 0.00 | 0.13 | 0.00 | 1017.9 | ||
| 20260904032553 | 60 | 0.0 | 1.0 | 0.00 | 0.13 | 0.00 | 1017.9 | ||
| 20260904031549 | 61 | 0.0 | 0.0 | 0.00 | 0.13 | 0.00 | 1017.9 | ||
| 20260904030545 | 61 | 0.0 | 0.0 | 0.00 | 0.13 | 0.00 | 1017.8 | ||
| 20260904025541 | 61 | 0.0 | 2.0 | 0.00 | 0.13 | 0.00 | 1017.8 | ||
| 20260904024538 | 61 | 0.0 | 2.0 | 0.00 | 0.13 | 0.00 | 1018.1 | ||
| 20260904023533 | 61 | 180 | 0.0 | 2.0 | 0.00 | 0.13 | 0.00 | 1018.1 | |
| 20260904022530 | 61 | 180 | 0.0 | 3.0 | 0.00 | 0.13 | 0.00 | 1018.4 | |
| 20260904021526 | 61 | 0.0 | 0.0 | 0.00 | 0.13 | 0.00 | 1018.4 | ||
| 20260904020522 | 61 | 0.0 | 0.0 | 0.00 | 0.13 | 0.00 | 1018.4 | ||
| 20260904015519 | 61 | 0.0 | 1.0 | 0.00 | 0.13 | 0.00 | 1018.3 | ||
| 20260904014615 | 61 | 0.0 | 2.0 | 0.00 | 0.13 | 0.00 | 1018.3 | ||
| 20260904013611 | 61 | 236 | 1.0 | 4.0 | 0.00 | 0.13 | 0.00 | 1018.5 | |
| 20260904012607 | 62 | 180 | 0.0 | 2.0 | 0.00 | 0.13 | 0.00 | 1018.5 | |
| 20260904011604 | 62 | 0.0 | 0.0 | 0.00 | 0.13 | 0.00 | 1018.6 | ||
| 20260904010600 | 62 | 0.0 | 0.0 | 0.00 | 0.13 | 0.00 | 1018.6 | ||
| 20260904005556 | 62 | 240 | 1.0 | 3.0 | 0.00 | 0.13 | 0.00 | 1018.5 | |
| 20260904004552 | 62 | 203 | 1.0 | 3.0 | 0.00 | 0.13 | 0.00 | 1018.6 | |
| 20260904003548 | 61 | 195 | 0.0 | 3.0 | 0.00 | 0.13 | 0.00 | 1018.6 | |
| 20260904002544 | 61 | 236 | 0.0 | 3.0 | 0.00 | 0.13 | 0.00 | 1018.7 | |
| 20260904001540 | 60 | 212 | 0.0 | 3.0 | 0.00 | 0.13 | 0.00 | 1018.9 | |
| 20260904000536 | 60 | 0.0 | 0.0 | 0.00 | 0.13 | 0.00 | 1019.1 | ||
| 20260903235533 | 61 | 0.0 | 0.0 | 0.00 | 0.13 | 0.00 | 1019.1 | ||
| 20260903234529 | 61 | 0.0 | 0.0 | 0.00 | 0.13 | 0.00 | 1019.2 | ||
| 20260903233525 | 61 | 0.0 | 1.0 | 0.00 | 0.13 | 0.00 | 1019.4 | ||
| 20260903232522 | 61 | 0.0 | 0.0 | 0.00 | 0.13 | 0.00 | 1019.5 | ||
| 20260903231517 | 61 | 0.0 | 0.0 | 0.00 | 0.13 | 0.00 | 1019.5 | ||
| 20260903230614 | 62 | 0.0 | 0.0 | 0.00 | 0.13 | 0.00 | 1019.6 | ||
| 20260903225610 | 61 | 0.0 | 1.0 | 0.00 | 0.13 | 0.00 | 1019.6 | ||
| 20260903224606 | 61 | 0.0 | 0.0 | 0.00 | 0.13 | 0.00 | 1019.7 | ||
| 20260903223603 | 62 | 0.0 | 0.0 | 0.00 | 0.13 | 0.00 | 1019.8 | ||
| 20260903222558 | 62 | 0.0 | 0.0 | 0.00 | 0.13 | 0.00 | 1019.7 | ||
| 20260903221555 | 62 | 0.0 | 1.0 | 0.00 | 0.13 | 0.00 | 1019.7 | ||
| 20260903220551 | 62 | 0.0 | 0.0 | 0.00 | 0.13 | 0.00 | 1019.7 | ||
| 20260903215547 | 62 | 0.0 | 0.0 | 0.00 | 0.13 | 0.13 | 1019.6 | ||
| 20260903214543 | 62 | 0.0 | 0.0 | 0.00 | 0.13 | 0.13 | 1019.7 | ||
| 20260903213540 | 62 | 0.0 | 0.0 | 0.00 | 0.13 | 0.13 | 1019.6 | ||
| 20260903212536 | 62 | 0.0 | 0.0 | 0.00 | 0.13 | 0.13 | 1019.7 | ||
| 20260903211532 | 62 | 0.0 | 0.0 | 0.00 | 0.13 | 0.13 | 1019.8 | ||
| 20260903210529 | 62 | 0.0 | 0.0 | 0.00 | 0.13 | 0.13 | 1019.7 | ||
| 20260903205524 | 62 | 0.0 | 0.0 | 0.00 | 0.13 | 0.13 | 1019.7 | ||
| 20260903204521 | 62 | 0.0 | 0.0 | 0.00 | 0.13 | 0.13 | 1019.7 | ||
| 20260903203517 | 62 | 0.0 | 0.0 | 0.00 | 0.13 | 0.13 | 1020.0 | ||
| 20260903202614 | 62 | 0.0 | 0.0 | 0.00 | 0.13 | 0.13 | 1020.0 | ||
| 20260903201609 | 63 | 0.0 | 0.0 | 0.00 | 0.13 | 0.13 | 1019.9 | ||
| 20260903200606 | 63 | 0.0 | 0.0 | 0.00 | 0.13 | 0.13 | 1019.9 | ||
| 20260903195602 | 63 | 0.0 | 0.0 | 0.00 | 0.13 | 0.13 | 1019.8 | ||
| 20260903194558 | 63 | 0.0 | 0.0 | 0.00 | 0.13 | 0.13 | 1019.7 | ||
| 20260903193554 | 63 | 0.0 | 0.0 | 0.00 | 0.13 | 0.13 | 1019.5 | ||
| 20260903192551 | 63 | 0.0 | 0.0 | 0.00 | 0.13 | 0.13 | 1019.4 | ||
| 20260903191547 | 63 | 0.0 | 0.0 | 0.00 | 0.13 | 0.13 | 1019.6 | ||
| 20260903190543 | 63 | 0.0 | 0.0 | 0.00 | 0.13 | 0.13 | 1019.6 | ||
| 20260903185540 | 63 | 0.0 | 2.0 | 0.00 | 0.13 | 0.13 | 1019.7 | ||
| 20260903184535 | 63 | 0.0 | 0.0 | 0.00 | 0.13 | 0.13 | 1019.7 | ||
| 20260903183531 | 64 | 0.0 | 0.0 | 0.00 | 0.13 | 0.13 | 1019.6 | ||
| 20260903182528 | 64 | 0.0 | 0.0 | 0.00 | 0.13 | 0.13 | 1019.4 |